Flag for Mexico Weather past 2 weeks in Ojinaga, Chihuahua, Mexico

Now
45 °F

Clear.


Feels Like: 41 °F
Forecast: 51 / 69 °F
Wind: 7 mph from North

Location: Marfa Municipal Airport

Current Time: Mar 4, 2015 at 6:23:41 AM

Latest Report: Mar 4, 2015 at 5:55 AM


Visibility: 10 mi

Pressure: 29.90 "Hg

Humidity: 87%

Dew point: 41 °F

Location of OjinagaLocation

Historic Weather in Ojinaga — Graph

°F

Ojinaga temperature yesterday

Maximum temperature yesterday: 72 °F (at 11:55 AM)
Minimum temperature yesterday: 39 °F (at 1:55 AM)
Average temperature yesterday: 55 °F

Past Weeks' High & Low Weather Summary

 TemperatureHumidityPressure
High73 °F (Feb 19, 2:15 PM)100% (Feb 17, 5:35 AM)30.33 "Hg (Feb 17, 5:35 AM)
Low21 °F (Feb 23, 6:35 AM)15% (Feb 20, 4:15 PM)29.81 "Hg (Feb 24, 4:15 PM)
Average44 °F66%30.09 "Hg
* Reported Feb 17 4:15 AM — Mar 4 4:55 AM, Ojinaga, Weather by CustomWeather, © 2015

Note: Actual official high and low records may vary slightly from our data, if they occured in-between our weather recording intervals... More about our weather records

Advertising

Ojinaga weather history for previous 24 hours

 ConditionsComfort  
Time TempWeatherWind HumidityBarometerVisibility
4:55 AM
Wed, Mar 4
45 °FPassing clouds.7 mph87%29.90 "Hg10 mi
4:35 AM45 °FClear.7 mph87%29.88 "Hg10 mi
4:15 AM45 °FPassing clouds.6 mph87%29.88 "Hg10 mi
3:55 AM45 °FPassing clouds.5 mph87%29.88 "Hg10 mi
3:35 AM45 °FPassing clouds.5 mph87%29.88 "Hg10 mi
3:15 AM46 °FPassing clouds.7 mph82%29.87 "Hg10 mi
2:55 AM45 °FPassing clouds.6 mph93%29.89 "Hg10 mi
2:35 AM46 °FPassing clouds.6 mph87%29.88 "Hg10 mi
2:15 AM48 °FPassing clouds.6 mph87%29.89 "Hg10 mi
1:55 AM50 °FOvercast.6 mph82%29.90 "Hg10 mi
1:35 AM50 °FMostly cloudy.8 mph82%29.90 "Hg10 mi
1:15 AM50 °FOvercast.8 mph82%29.91 "Hg10 mi
12:55 AM52 °FOvercast.6 mph77%29.91 "Hg10 mi
12:35 AM52 °FOvercast.5 mph77%29.92 "Hg10 mi
12:15 AM52 °FMostly cloudy.5 mph77%29.92 "Hg10 mi
11:55 PM
Tue, Mar 3
52 °FMostly cloudy.7 mph77%29.91 "Hg10 mi
11:35 PM52 °FMostly cloudy.8 mph77%29.92 "Hg10 mi
11:15 PM52 °FMostly cloudy.5 mph77%29.93 "Hg10 mi
10:55 PM52 °FOvercast.5 mph77%29.93 "Hg10 mi
10:35 PM52 °FMostly cloudy.5 mph77%29.93 "Hg10 mi
10:15 PM52 °FOvercast.No wind77%29.93 "Hg10 mi
9:55 PM54 °FMostly cloudy.5 mph72%29.93 "Hg10 mi
9:35 PM52 °FPassing clouds.6 mph77%29.93 "Hg10 mi
9:15 PM52 °FClear.7 mph77%29.93 "Hg10 mi
8:55 PM54 °FPassing clouds.7 mph72%29.93 "Hg10 mi
8:35 PM52 °FPassing clouds.7 mph82%29.93 "Hg10 mi
8:15 PM54 °FPartly cloudy.5 mph77%29.93 "Hg10 mi
7:55 PM55 °FOvercast.3 mph67%29.92 "Hg10 mi
7:35 PM57 °FOvercast.No wind67%29.92 "Hg10 mi
7:15 PM59 °FOvercast.No wind59%29.91 "Hg10 mi
6:55 PM57 °FOvercast.No wind67%29.91 "Hg10 mi
6:35 PM57 °FOvercast.6 mph63%29.90 "Hg10 mi
6:15 PM61 °FMostly cloudy.6 mph52%29.89 "Hg10 mi
5:55 PM61 °FOvercast.9 mph52%29.88 "Hg10 mi
5:35 PM61 °FMore clouds than sun.13 mph52%29.88 "Hg10 mi
5:15 PM61 °FBroken clouds.13 mph52%29.88 "Hg10 mi
4:55 PM61 °FPartly sunny.14 mph52%29.87 "Hg10 mi
4:35 PM63 °FOvercast.14 mph49%29.87 "Hg10 mi
4:15 PM68 °FMostly cloudy.18 mph33%29.86 "Hg10 mi
3:55 PM70 °FPartly sunny.20 mph31%29.86 "Hg10 mi
3:35 PM70 °FPassing clouds.18 mph31%29.85 "Hg10 mi
3:15 PM72 °FSunny.18 mph29%29.86 "Hg10 mi
2:55 PM70 °FSunny.16 mph31%29.86 "Hg10 mi
2:35 PM70 °FPartly sunny.18 mph31%29.86 "Hg10 mi
2:15 PM68 °FPartly sunny.17 mph33%29.87 "Hg10 mi
1:55 PM70 °FPassing clouds.17 mph31%29.88 "Hg10 mi
1:35 PM70 °FSunny.22 mph31%29.89 "Hg10 mi
1:15 PM70 °FSunny.24 mph29%29.91 "Hg10 mi
12:55 PM70 °FSunny.25 mph29%29.92 "Hg10 mi
12:35 PM70 °FSunny.22 mph29%29.92 "Hg10 mi
12:15 PM72 °FPassing clouds.23 mph29%29.93 "Hg10 mi
11:55 AM72 °FSunny.23 mph29%29.93 "Hg10 mi
11:35 AM70 °FSunny.23 mph31%29.95 "Hg10 mi
11:15 AM70 °FSunny.22 mph31%29.95 "Hg10 mi
10:55 AM68 °FSunny.21 mph33%29.96 "Hg10 mi
10:35 AM64 °FSunny.17 mph40%29.96 "Hg10 mi
10:15 AM61 °FSunny.13 mph45%29.97 "Hg10 mi
9:55 AM59 °FPassing clouds.8 mph48%29.98 "Hg10 mi
9:35 AM57 °FPassing clouds.8 mph51%29.99 "Hg10 mi
9:15 AM55 °FPassing clouds.3 mph55%30.00 "Hg10 mi
8:55 AM54 °FScattered clouds.6 mph54%29.99 "Hg10 mi
8:35 AM52 °FPassing clouds.8 mph58%29.98 "Hg10 mi
8:15 AM52 °FPartly sunny.3 mph58%29.99 "Hg10 mi
7:55 AM48 °FPassing clouds.5 mph71%29.98 "Hg10 mi
7:35 AM48 °FPartly sunny.No wind66%29.97 "Hg10 mi
7:15 AM48 °FOvercast.3 mph66%29.98 "Hg10 mi
6:55 AM46 °FPartly sunny.5 mph71%29.99 "Hg10 mi
6:35 AM46 °FPartly sunny.No wind71%29.98 "Hg10 mi
6:15 AM46 °FPassing clouds.3 mph71%29.98 "Hg10 mi
Weather by CustomWeather, © 2015

See weather overviewHow to use our weather pages